Terminal Aerodrome Forecast
Issued by NWS Mt. Holly, NJ

Home | Current Version | Previous Version | Text Only | Print | Product List | Glossary On
Versions: 1 2 3 4 5 6 7 8 9 10 11 12 13 14 15 16 17 18 19 20 21 22 23 24 25 26 27 28 29 30 31 32 33 34 35 36 37 38 39 40 41 42
000
FTAK31 PANC 220822 AAA
TAFABE
TAF AMD
PABE 220822Z 2208/2306 20010KT P6SM VCSH OVC035
     FM221000 20008KT 5SM -SHRA BR OVC008
     FM222100 21010KT P6SM -RA SCT008 OVC012=

USA.gov is the U.S. government's official web portal to all federal, state and local government web resources and services.